• In Austria
  • List of Countries
  • For 7 days
  • Water Temperature
  • Satellite Maps
  • Weather Map
  • News
  • Weather Widgets
  • user-avatar
    Login

    Hourly Weather Escaldes-Engordany

    Today, 22 October, Sunday

    Time Temperature Precipitation Wind Pressure Humidity
    00:00 +6°C° 0 mm 2 mps 644 mmHg 92%
    01:00 +5°C° 0 mm 2 mps 644 mmHg 91%
    02:00 +5°C° 0 mm 2 mps 643 mmHg 90%
    03:00 +4°C° 0 mm 2 mps 643 mmHg 90%
    04:00 +4°C° 0 mm 2 mps 643 mmHg 88%
    05:00 +3°C° 0 mm 2 mps 643 mmHg 87%
    06:00 +2°C° 0 mm 2 mps 643 mmHg 85%
    07:00 +4°C° 0 mm 2 mps 643 mmHg 78%
    08:00 +6°C° 0 mm 2 mps 644 mmHg 71%
    09:00 +7°C° 0 mm 3 mps 644 mmHg 63%
    10:00 +8°C° 0 mm 3 mps 645 mmHg 59%
    11:00 +9°C° 0 mm 3 mps 645 mmHg 54%
    12:00 +10°C° 0 mm 3 mps 645 mmHg 49%
    13:00 +10°C° 0 mm 3 mps 645 mmHg 50%
    14:00 +10°C° 0 mm 3 mps 645 mmHg 51%
    15:00 +10°C° 0 mm 3 mps 644 mmHg 52%
    16:00 +8°C° 0 mm 3 mps 644 mmHg 60%
    17:00 +5°C° 0 mm 3 mps 643 mmHg 68%
    18:00 +4°C° 0 mm 2 mps 643 mmHg 76%
    19:00 +4°C° 0 mm 2 mps 643 mmHg 74%
    20:00 +4°C° 0 mm 2 mps 643 mmHg 72%
    21:00 +2°C° 0 mm 3 mps 643 mmHg 70%
    22:00 +3°C° 0 mm 2 mps 643 mmHg 71%
    23:00 +3°C° 0 mm 2 mps 643 mmHg 71%

    Tomorrow, 23 October, Monday

    Time Temperature Precipitation Wind Pressure Humidity
    00:00 +3°C° 0 mm 2 mps 643 mmHg 71%
    01:00 +3°C° 0 mm 2 mps 643 mmHg 72%
    02:00 +2°C° 0 mm 2 mps 643 mmHg 73%
    03:00 +2°C° 0 mm 2 mps 643 mmHg 73%
    04:00 +2°C° 0 mm 2 mps 643 mmHg 73%
    05:00 +2°C° 0 mm 2 mps 643 mmHg 72%
    06:00 +2°C° 0 mm 2 mps 643 mmHg 72%
    07:00 +4°C° 0 mm 2 mps 644 mmHg 64%
    08:00 +7°C° 0 mm 2 mps 645 mmHg 56%
    09:00 +9°C° 0 mm 2 mps 645 mmHg 48%
    10:00 +10°C° 0 mm 2 mps 646 mmHg 46%
    11:00 +12°C° 0 mm 2 mps 646 mmHg 43%
    12:00 +14°C° 0 mm 2 mps 646 mmHg 40%
    13:00 +13°C° 0 mm 2 mps 646 mmHg 42%
    14:00 +13°C° 0 mm 2 mps 645 mmHg 45%
    15:00 +13°C° 0 mm 2 mps 645 mmHg 47%
    16:00 +10°C° 0 mm 2 mps 645 mmHg 55%
    17:00 +8°C° 0 mm 2 mps 644 mmHg 64%
    18:00 +6°C° 0 mm 2 mps 643 mmHg 73%
    19:00 +5°C° 0 mm 2 mps 643 mmHg 69%
    20:00 +5°C° 0 mm 2 mps 644 mmHg 66%
    21:00 +5°C° 0 mm 2 mps 644 mmHg 62%
    22:00 +5°C° 0 mm 2 mps 644 mmHg 62%
    23:00 +5°C° 0 mm 2 mps 644 mmHg 62%

    Day after tomorrow, 24 October, Tuesday

    Time Temperature Precipitation Wind Pressure Humidity
    00:00 +5°C° 0 mm 2 mps 644 mmHg 61%
    01:00 +5°C° 0 mm 2 mps 644 mmHg 61%
    02:00 +6°C° 0 mm 2 mps 643 mmHg 61%
    03:00 +6°C° 0 mm 2 mps 643 mmHg 61%
    04:00 +6°C° 0 mm 2 mps 643 mmHg 60%
    05:00 +6°C° 0 mm 2 mps 643 mmHg 60%
    06:00 +6°C° 0 mm 2 mps 643 mmHg 60%
    07:00 +9°C° 0 mm 1 mps 644 mmHg 55%
    08:00 +12°C° 0 mm 1 mps 645 mmHg 50%
    09:00 +15°C° 0 mm 1 mps 646 mmHg 45%
    10:00 +16°C° 0 mm 1 mps 646 mmHg 43%
    11:00 +18°C° 0 mm 1 mps 647 mmHg 40%
    12:00 +19°C° 0 mm 1 mps 647 mmHg 38%
    13:00 +19°C° 0 mm 1 mps 647 mmHg 40%
    14:00 +19°C° 0 mm 1 mps 646 mmHg 41%
    15:00 +18°C° 0 mm 1 mps 646 mmHg 43%
    16:00 +15°C° 0 mm 1 mps 645 mmHg 51%
    17:00 +13°C° 0 mm 1 mps 644 mmHg 59%
    18:00 +10°C° 0 mm 1 mps 644 mmHg 67%
    19:00 +10°C° 0 mm 1 mps 644 mmHg 66%
    20:00 +10°C° 0 mm 1 mps 644 mmHg 66%
    21:00 +10°C° 0 mm 1 mps 644 mmHg 66%
    22:00 +10°C° 0 mm 1 mps 644 mmHg 64%
    23:00 +10°C° 0 mm 1 mps 644 mmHg 63%

    25 October, Wednesday

    Time Temperature Precipitation Wind Pressure Humidity
    00:00 +10°C° 0 mm 1 mps 644 mmHg 61%
    01:00 +9°C° 0 mm 1 mps 644 mmHg 60%
    02:00 +9°C° 0 mm 1 mps 643 mmHg 59%
    03:00 +9°C° 0 mm 1 mps 643 mmHg 58%
    04:00 +9°C° 0 mm 1 mps 643 mmHg 58%
    05:00 +9°C° 0 mm 1 mps 643 mmHg 58%
    06:00 +9°C° 0 mm 1 mps 643 mmHg 57%
    07:00 +12°C° 0 mm 1 mps 645 mmHg 53%
    08:00 +14°C° 0 mm 1 mps 646 mmHg 48%
    09:00 +16°C° 0 mm 1 mps 647 mmHg 43%
    10:00 +19°C° 0 mm 1 mps 647 mmHg 40%
    11:00 +20°C° 0 mm 1 mps 648 mmHg 38%
    12:00 +20°C° 0 mm 2 mps 648 mmHg 35%
    13:00 +19°C° 0 mm 2 mps 647 mmHg 37%
    14:00 +19°C° 0 mm 2 mps 647 mmHg 40%
    15:00 +20°C° 0 mm 1 mps 647 mmHg 42%
    16:00 +16°C° 0 mm 1 mps 646 mmHg 50%
    17:00 +14°C° 0 mm 1 mps 646 mmHg 58%
    18:00 +11°C° 0 mm 1 mps 645 mmHg 66%
    19:00 +11°C° 0 mm 1 mps 645 mmHg 66%
    20:00 +11°C° 0 mm 1 mps 645 mmHg 65%
    21:00 +11°C° 0 mm 1 mps 645 mmHg 65%
    22:00 +11°C° 0 mm 1 mps 645 mmHg 64%
    23:00 +11°C° 0 mm 1 mps 645 mmHg 63%

    26 October, Thursday

    Time Temperature Precipitation Wind Pressure Humidity
    00:00 +11°C° 0 mm 1 mps 645 mmHg 62%
    01:00 +10°C° 0 mm 1 mps 645 mmHg 60%
    02:00 +10°C° 0 mm 1 mps 645 mmHg 59%
    03:00 +10°C° 0 mm 1 mps 645 mmHg 57%
    04:00 +10°C° 0 mm 1 mps 645 mmHg 56%
    05:00 +10°C° 0 mm 1 mps 645 mmHg 55%
    06:00 +10°C° 0 mm 1 mps 645 mmHg 54%
    07:00 +13°C° 0 mm 1 mps 646 mmHg 49%
    08:00 +15°C° 0 mm 1 mps 648 mmHg 44%
    09:00 +17°C° 0 mm 0 mps 649 mmHg 39%
    10:00 +20°C° 0 mm 1 mps 649 mmHg 37%
    11:00 +21°C° 0 mm 1 mps 649 mmHg 34%
    12:00 +22°C° 0 mm 1 mps 650 mmHg 31%
    13:00 +22°C° 0 mm 1 mps 649 mmHg 33%
    14:00 +21°C° 0 mm 1 mps 649 mmHg 35%
    15:00 +21°C° 0 mm 1 mps 648 mmHg 38%
    16:00 +19°C° 0 mm 1 mps 648 mmHg 45%
    17:00 +15°C° 0 mm 1 mps 647 mmHg 53%
    18:00 +13°C° 0 mm 1 mps 646 mmHg 60%
    19:00 +12°C° 0 mm 1 mps 647 mmHg 59%
    20:00 +12°C° 0 mm 1 mps 647 mmHg 58%
    21:00 +12°C° 0 mm 1 mps 647 mmHg 56%
    22:00 +12°C° 0 mm 1 mps 647 mmHg 54%
    23:00 +12°C° 0 mm 1 mps 647 mmHg 51%

    27 October, Friday

    Time Temperature Precipitation Wind Pressure Humidity
    00:00 +11°C° 0 mm 1 mps 647 mmHg 49%
    01:00 +11°C° 0 mm 1 mps 646 mmHg 48%
    02:00 +10°C° 0 mm 2 mps 646 mmHg 46%
    03:00 +10°C° 0 mm 2 mps 646 mmHg 45%
    04:00 +10°C° 0 mm 2 mps 646 mmHg 45%
    05:00 +10°C° 0 mm 2 mps 646 mmHg 45%
    06:00 +9°C° 0 mm 2 mps 646 mmHg 45%
    07:00 +13°C° 0 mm 2 mps 647 mmHg 42%
    08:00 +15°C° 0 mm 2 mps 648 mmHg 40%
    09:00 +17°C° 0 mm 2 mps 649 mmHg 37%
    10:00 +18°C° 0 mm 2 mps 649 mmHg 34%
    11:00 +19°C° 0 mm 2 mps 649 mmHg 31%
    12:00 +21°C° 0 mm 3 mps 649 mmHg 28%
    13:00 +20°C° 0 mm 3 mps 649 mmHg 30%
    14:00 +20°C° 0 mm 3 mps 649 mmHg 33%
    15:00 +19°C° 0 mm 3 mps 648 mmHg 35%
    16:00 +17°C° 0 mm 3 mps 647 mmHg 41%
    17:00 +13°C° 0 mm 3 mps 646 mmHg 48%
    18:00 +12°C° 0 mm 2 mps 646 mmHg 54%
    19:00 +11°C° 0 mm 3 mps 646 mmHg 54%
    20:00 +10°C° 0 mm 3 mps 646 mmHg 54%
    21:00 +10°C° 0 mm 3 mps 645 mmHg 54%
    22:00 +9°C° 0 mm 3 mps 645 mmHg 54%
    23:00 +9°C° 0 mm 3 mps 645 mmHg 54%
    Show more